Zurück zum Katalog

DELTA 1 DEB

AktivPO
NORAD 1312·DEBRIS·🇺🇸 United States

Gestartet Jan 22, 1965 von Cape Canaveral Space Force Station

Loading…

Nächste Überflüge (nächste 24 Stunden)

TLE

AktuellSource: Space-Track

Epoche: Sep 13, 2026, 07:15 UTC

1 01312U 65004C   26256.30274188 -.00000006  00000-0  16811-4 0  9994
2 01312  96.3423 211.4991 1114896 278.2341  69.4025 12.28282895737404

Verfolge DELTA 1 DEB in Echtzeit mit AllMySat

Download on the App Store